Temp
6 6 6 6 6 7 7 7 7 7 8 8 8 7 7 7 7 7 7 7 6 6 6 5 5 5 5 5 4 4 3 4 4 3 3 2 2 2 2 3 1 1 1 1 2
6 6 6 6 6 7 7 6 6 7 7 7 7 7 7 7 7 7 6 6 6 6 5 5 5 5 5 4 4 4 3 3 3 2 2 2 2 2 2 2 2 1 1 2 2
6 6 6 6 6 6 6 6 6 6 6 6 6 6 6 6 6 6 6 6 5 5 5 5 4 4 4 4 3 3 2 2 2 3 3 3 2 1 2 2 1 2 2 2 2
5 6 6 6 6 6 6 6 6 6 6 6 6 6 6 6 6 6 5 5 5 5 4 4 4 3 3 3 3 3 3 3 3 3 3 3 2 2 2 2 2 2 2 2 2
5 5 5 6 6 6 6 6 6 6 6 6 6 6 6 6 5 5 5 4 4 4 4 4 3 3 2 3 3 3 3 3 3 2 3 3 3 2 3 2 3 2 2 2 1
5 5 5 5 5 5 5 6 6 6 6 6 5 5 5 5 5 4 4 4 4 4 4 3 3 3 3 3 3 3 2 3 3 2 3 3 3 2 2 3 2 2 2 2 1
4 4 4 5 5 5 5 5 5 5 5 5 5 5 5 5 4 4 4 4 3 3 3 3 3 2 2 2 2 2 3 2 3 3 2 3 3 2 3 2 2 2 2 2 1
4 4 4 4 4 4 4 5 5 5 5 4 4 4 5 4 4 4 3 3 3 3 3 3 2 2 2 2 2 2 2 2 1 2 1 1 2 1 2 1 2 2 2 2 1
3 3 4 4 4 4 4 4 4 4 4 4 4 4 4 4 3 3 3 3 3 2 2 2 2 2 1 1 1 1 1 1 2 1 0 0 2 1 1 1 2 1 2 2 1
3 3 3 3 3 3 3 3 4 4 3 3 3 3 4 3 3 2 2 2 2 2 2 2 1 1 1 1 0 -0 -0 1 1 0 -0 -1 1 1 1 -1 1 1 1 1 1
3 3 3 2 3 3 3 3 3 3 3 3 3 3 3 2 2 2 2 1 1 1 1 1 1 1 -1 -1 -2 -0 -0 0 -0 -0 -1 -1 -0 1 0 -1 1 1 1 1 1
2 2 2 2 2 2 2 2 2 2 2 2 2 2 2 2 1 1 1 1 0 0 0 -0 -0 -1 -1 -1 -1 -1 -1 -1 -1 -2 -2 -1 -0 1 1 0 -2 -0 -0 1 0
2 2 2 2 2 2 2 2 2 1 1 1 2 2 1 1 1 1 0 -0 -0 -0 -0 -1 -1 -1 -1 -1 -1 -1 -2 -2 -3 -2 -2 -2 -2 0 -0 0 0 0 -0 -0 -0
2 2 2 1 1 1 1 1 1 1 1 1 1 1 1 0 0 1 -0 -1 -1 -1 -1 -1 -1 -1 -1 -1 -2 -2 -3 -3 -3 -4 -4 -3 -5 -3 -1 -1 -1 -1 -1 -0 -1
1 1 1 1 1 1 1 0 0 -0 -2 -0 -0 -0 -0 0 0 0 -0 -1 -1 -0 -1 -1 -1 -1 -2 -2 -3 -4 -3 -3 -4 -4 -5 -4 -4 -2 -1 -2 -2 -3 -2 -1 -2
0 0 0 0 0 -0 -0 -0 -1 -0 -1 -0 -0 -0 -0 -0 -0 -0 -0 -1 -1 -1 -1 -2 -2 -2 -2 -2 -3 -4 -4 -4 -4 -5 -7 -4 -4 -3 -2 -3 -3 -4 -3 -2 -3
-0 -0 -0 -1 -1 -1 -1 -1 -1 -1 0 -1 -0 -1 -1 -1 -1 -1 -1 -1 -2 -2 -2 -2 -2 -2 -3 -3 -4 -5 -5 -5 -7 -8 -9 -4 -4 -3 -3 -3 -3 -3 -3 -3 -3
-1 -1 -1 -1 -1 -1 -2 -2 -2 -0 0 -1 -0 -1 -2 -1 -1 -1 -2 -2 -2 -3 -3 -3 -4 -4 -3 -4 -5 -6 -5 -5 -9 -9 -6 -4 -5 -3 -3 -3 -3 -3 -4 -4 -4
-1 -2 -2 -2 -2 -2 -3 -3 -1 -1 -1 -0 -1 -2 -1 -2 -2 -2 -3 -3 -3 -3 -3 -4 -4 -4 -4 -4 -4 -6 -6 -6 -6 -6 -7 -5 -5 -4 -4 -4 -4 -4 -4 -4 -5
-2 -2 -2 -2 -2 -3 -3 -3 -2 -1 -1 -1 -1 -2 -2 -2 -3 -3 -3 -3 -3 -3 -4 -4 -5 -5 -5 -5 -5 -5 -6 -7 -7 -12 -11 -5 -5 -5 -5 -5 -5 -5 -5 -5 -6
-2 -4 -3 -3 -3 -4 -4 -3 -2 -2 -2 -2 -2 -2 -2 -2 -3 -3 -4 -4 -4 -4 -4 -5 -5 -6 -6 -6 -6 -7 -7 -7 -7 -7 -11 -9 -6 -5 -6 -6 -6 -6 -6 -6 -7
-3 -5 -4 -4 -4 -4 -4 -3 -3 -3 -3 -3 -3 -3 -3 -3 -4 -4 -4 -4 -5 -5 -5 -5 -6 -7 -6 -6 -7 -7 -7 -8 -8 -8 -7 -7 -7 -7 -7 -7 -7 -7 -7 -7 -8
-4 -6 -5 -5 -5 -4 -3 -3 -3 -3 -3 -3 -3 -3 -4 -4 -5 -5 -5 -5 -5 -6 -6 -6 -8 -8 -7 -7 -7 -7 -8 -8 -8 -9 -9 -10 -9 -8 -8 -8 -8 -8 -10 -9 -10
-7 -8 -7 -6 -5 -4 -4 -4 -4 -3 -4 -4 -4 -4 -4 -5 -5 -5 -6 -6 -6 -6 -6 -7 -8 -8 -8 -7 -7 -8 -9 -9 -10 -10 -10 -10 -10 -9 -9 -10 -9 -9 -10 -10 -10
-6 -8 -6 -5 -5 -5 -4 -5 -4 -4 -4 -4 -4 -5 -5 -5 -6 -6 -6 -6 -7 -7 -7 -8 -8 -8 -8 -8 -9 -9 -10 -9 -10 -10 -12 -11 -11 -10 -10 -11 -12 -12 -11 -11 -11
-6 -6 -4 -3 -3 -4 -5 -4 -4 -4 -5 -5 -4 -5 -5 -6 -6 -6 -6 -7 -7 -8 -8 -8 -9 -9 -9 -9 -10 -11 -11 -10 -11 -11 -12 -11 -12 -10 -12 -12 -12 -13 -13 -12 -13
-5 -5 -5 -4 -3 -4 -3 -3 -4 -5 -5 -5 -5 -6 -6 -6 -6 -7 -7 -8 -8 -8 -9 -9 -9 -10 -11 -11 -11 -12 -10 -11 -11 -12 -12 -12 -12 -12 -12 -13 -13 -13 -13 -13 -13
Height
3130 3131 3132 3132 3133 3132 3132 3131 3132 3132 3132 3131 3131 3132 3132 3132 3132 3132 3131 3132 3131 3130 3129 3129 3129 3130 3130 3131 3132 3133 3135 3136 3137 3136 3136 3133 3132 3132 3131 3131 3131 3131 3130 3127 3125
3130 3129 3130 3131 3131 3132 3131 3131 3131 3131 3131 3131 3131 3131 3131 3129 3130 3129 3130 3129 3128 3129 3130 3129 3129 3129 3130 3131 3132 3134 3134 3134 3134 3133 3132 3132 3131 3130 3129 3129 3129 3127 3126 3125 3124
3129 3128 3129 3129 3128 3129 3130 3130 3130 3130 3131 3131 3131 3130 3130 3129 3129 3127 3127 3127 3127 3128 3129 3128 3129 3130 3130 3129 3132 3132 3135 3133 3132 3130 3129 3129 3129 3128 3127 3127 3125 3123 3122 3122 3121
3128 3128 3127 3126 3127 3128 3129 3129 3129 3129 3130 3130 3130 3130 3128 3128 3130 3126 3126 3126 3126 3127 3128 3127 3127 3129 3129 3129 3131 3132 3131 3130 3129 3128 3128 3127 3126 3125 3125 3125 3122 3121 3119 3118 3117
3127 3127 3127 3126 3127 3127 3128 3128 3128 3128 3128 3128 3127 3127 3126 3126 3126 3125 3125 3125 3124 3125 3126 3126 3126 3127 3128 3128 3129 3128 3128 3129 3128 3127 3126 3126 3125 3123 3122 3121 3119 3118 3116 3114 3114
3128 3127 3126 3125 3125 3126 3126 3127 3127 3127 3127 3126 3126 3125 3125 3125 3123 3123 3123 3123 3123 3124 3124 3124 3125 3125 3126 3126 3127 3126 3126 3125 3125 3125 3123 3121 3120 3119 3118 3118 3117 3115 3113 3111 3109
3125 3126 3125 3124 3124 3124 3124 3124 3125 3126 3124 3124 3124 3123 3122 3124 3121 3120 3121 3121 3121 3122 3123 3123 3123 3124 3124 3125 3125 3124 3124 3123 3122 3121 3120 3119 3118 3115 3114 3114 3113 3111 3109 3107 3106
3123 3123 3123 3124 3124 3123 3124 3123 3122 3122 3122 3121 3120 3120 3120 3119 3119 3118 3118 3118 3119 3119 3121 3121 3122 3122 3123 3124 3123 3123 3122 3120 3119 3120 3118 3118 3114 3115 3112 3111 3110 3108 3106 3105 3103
3120 3120 3120 3120 3121 3121 3120 3121 3120 3120 3118 3118 3118 3117 3118 3117 3117 3116 3116 3116 3117 3117 3118 3119 3120 3121 3123 3122 3122 3121 3122 3121 3120 3117 3117 3114 3111 3111 3110 3108 3105 3104 3102 3100 3099
3117 3117 3117 3117 3118 3118 3117 3118 3118 3117 3117 3115 3115 3116 3115 3115 3114 3114 3114 3114 3115 3115 3116 3117 3118 3119 3120 3121 3122 3121 3120 3120 3118 3117 3111 3111 3107 3108 3107 3102 3100 3099 3097 3095 3094
3113 3114 3114 3114 3115 3115 3115 3115 3117 3115 3113 3113 3112 3111 3110 3111 3112 3112 3112 3112 3113 3113 3113 3115 3116 3117 3119 3119 3118 3118 3117 3114 3115 3115 3110 3105 3102 3101 3102 3100 3095 3094 3092 3090 3089
3110 3110 3110 3111 3111 3112 3112 3111 3111 3112 3109 3108 3107 3107 3106 3106 3109 3109 3110 3112 3111 3111 3112 3114 3113 3112 3114 3115 3116 3115 3112 3110 3109 3110 3108 3102 3095 3095 3095 3093 3092 3088 3088 3086 3084
3106 3106 3107 3107 3108 3107 3109 3108 3108 3108 3107 3105 3102 3101 3104 3105 3103 3107 3108 3107 3108 3108 3109 3110 3112 3111 3112 3111 3111 3111 3110 3108 3107 3104 3102 3098 3086 3089 3088 3089 3086 3085 3085 3081 3080
3100 3101 3102 3103 3106 3103 3105 3105 3105 3105 3103 3101 3099 3097 3099 3100 3102 3102 3104 3107 3105 3107 3106 3107 3107 3108 3109 3109 3109 3108 3107 3107 3105 3103 3101 3099 3088 3084 3086 3083 3083 3082 3081 3078 3076
3095 3096 3097 3098 3099 3101 3102 3102 3103 3105 3104 3099 3096 3096 3097 3099 3100 3101 3103 3103 3103 3103 3107 3106 3105 3106 3107 3108 3106 3107 3104 3103 3102 3101 3098 3094 3095 3081 3085 3081 3080 3079 3078 3076 3074
3089 3090 3092 3094 3095 3097 3097 3099 3101 3106 3098 3094 3094 3094 3096 3097 3098 3099 3101 3102 3103 3102 3103 3103 3103 3104 3104 3103 3104 3103 3102 3100 3098 3099 3096 3090 3092 3082 3081 3080 3079 3075 3076 3075 3072
3082 3084 3086 3087 3090 3092 3093 3095 3101 3098 3095 3092 3091 3093 3094 3095 3096 3097 3099 3100 3102 3101 3101 3101 3101 3101 3102 3101 3102 3102 3101 3100 3100 3099 3095 3089 3088 3083 3082 3080 3080 3074 3073 3071 3069
3075 3077 3080 3082 3084 3086 3088 3093 3091 3088 3088 3088 3089 3091 3092 3093 3095 3096 3097 3098 3099 3098 3099 3100 3099 3100 3101 3101 3101 3100 3102 3104 3105 3098 3091 3088 3083 3080 3079 3080 3078 3073 3069 3067 3065
3067 3070 3073 3076 3078 3080 3085 3084 3083 3083 3085 3085 3088 3089 3090 3091 3093 3093 3095 3096 3095 3096 3099 3099 3098 3098 3099 3100 3102 3100 3100 3100 3098 3094 3092 3082 3077 3078 3075 3074 3072 3070 3067 3064 3062
3059 3062 3067 3069 3071 3074 3076 3077 3077 3079 3081 3083 3085 3087 3085 3087 3089 3090 3092 3093 3093 3094 3095 3095 3096 3095 3097 3097 3098 3097 3097 3097 3096 3097 3091 3076 3073 3071 3072 3070 3068 3066 3063 3060 3058
3050 3053 3058 3061 3064 3066 3067 3070 3072 3074 3077 3081 3081 3082 3083 3086 3086 3087 3088 3091 3091 3091 3093 3093 3095 3094 3094 3093 3093 3092 3092 3093 3092 3090 3086 3082 3067 3068 3068 3066 3062 3060 3058 3055 3054
3039 3044 3051 3053 3057 3055 3060 3063 3068 3070 3073 3075 3077 3078 3080 3082 3083 3084 3085 3087 3088 3089 3090 3091 3090 3088 3089 3090 3089 3088 3088 3090 3088 3083 3079 3077 3052 3065 3065 3063 3060 3057 3057 3054 3051
3028 3036 3041 3046 3046 3050 3054 3058 3061 3066 3068 3069 3071 3072 3075 3078 3082 3079 3080 3083 3084 3086 3085 3086 3085 3085 3084 3086 3083 3081 3083 3083 3082 3079 3067 3071 3055 3058 3061 3059 3057 3054 3051 3049 3047
3023 3028 3034 3037 3039 3044 3049 3052 3056 3059 3062 3064 3066 3068 3071 3072 3074 3074 3076 3079 3080 3081 3082 3082 3081 3082 3083 3081 3081 3077 3077 3077 3075 3068 3060 3058 3050 3048 3053 3054 3051 3049 3047 3043 3042
3010 3014 3022 3024 3031 3037 3042 3046 3050 3052 3054 3058 3060 3062 3066 3068 3069 3070 3071 3074 3076 3077 3079 3079 3077 3077 3077 3076 3074 3070 3069 3068 3062 3059 3058 3048 3048 3043 3043 3042 3039 3038 3036 3036 3035
3002 3009 3016 3020 3025 3032 3035 3038 3042 3045 3049 3051 3054 3059 3062 3063 3066 3066 3068 3069 3072 3073 3074 3075 3073 3071 3068 3070 3066 3060 3062 3057 3054 3050 3046 3041 3036 3040 3036 3033 3030 3027 3024 3023 3024
2996 3004 3011 3015 3018 3024 3026 3029 3035 3041 3043 3047 3051 3053 3056 3059 3061 3063 3064 3065 3067 3068 3070 3071 3071 3069 3063 3065 3060 3055 3053 3050 3047 3045 3043 3036 3033 3032 3028 3025 3022 3019 3017 3015 3016
Wind_Speed
5 6 7 8 8 7 7 7 8 8 9 9 9 9 9 10 11 11 10 9 8 7 6 4 3 2 2 2 2 2 5 1 5 1 4 11 7 9 12 13 9 10 10 14 22
5 5 6 5 6 8 7 7 8 8 8 9 9 9 9 8 9 10 10 8 7 7 6 5 3 3 1 1 1 2 4 5 11 9 8 12 13 11 12 11 7 14 16 20 21
4 4 4 6 6 6 7 8 8 9 10 10 10 10 10 10 12 8 6 6 6 7 6 4 4 3 3 2 1 4 3 13 10 11 10 11 12 13 13 12 16 20 21 19 18
5 5 4 4 5 5 6 7 9 10 10 11 12 11 11 12 9 8 8 8 6 7 6 5 4 4 3 3 3 5 9 11 12 13 11 12 14 15 16 16 21 21 23 22 19
6 5 5 5 6 6 8 8 9 10 11 12 12 11 11 10 9 10 10 8 7 7 7 6 5 5 5 6 5 8 11 11 13 15 14 15 14 18 16 17 18 19 23 23 21
8 6 6 5 6 7 7 9 11 11 12 13 13 12 12 11 11 9 8 8 7 8 8 8 7 7 8 9 9 11 12 13 15 15 16 17 15 19 19 17 17 21 22 23 23
8 8 7 7 7 7 9 9 11 13 13 14 14 13 13 12 11 9 8 8 8 8 8 7 7 8 7 10 9 10 13 14 17 17 18 18 18 17 19 16 20 22 23 23 23
9 10 9 10 10 10 11 12 12 14 14 13 12 13 12 13 12 10 9 9 8 8 7 7 7 8 10 10 13 13 15 13 10 13 20 18 25 18 23 22 23 24 25 24 24
10 9 9 10 11 12 12 14 14 14 14 14 14 13 13 10 8 6 7 7 7 8 7 7 6 8 9 10 11 12 11 8 14 18 18 22 24 17 24 28 29 26 28 27 25
12 12 12 12 13 14 13 14 15 15 15 14 13 12 12 11 10 9 9 9 8 8 8 7 7 9 10 10 2 8 10 11 12 18 23 25 31 29 26 29 34 31 29 28 26
14 14 13 13 14 14 14 14 15 16 14 12 14 15 14 13 11 10 10 9 9 9 9 6 9 8 3 11 15 18 21 24 23 19 27 34 35 31 26 27 35 34 31 28 25
17 16 15 15 16 15 15 14 15 15 16 15 15 17 17 15 14 13 12 11 9 10 9 10 10 13 15 17 19 21 22 24 23 14 22 30 36 32 27 28 30 36 30 29 27
20 19 17 17 17 16 15 14 14 14 16 16 19 19 17 16 15 14 13 11 10 11 11 12 10 14 17 19 18 17 19 20 22 23 25 26 32 6 12 14 25 27 27 28 28
23 22 20 18 19 16 14 13 11 11 12 11 11 11 12 12 11 10 10 10 9 9 9 8 9 10 10 11 11 16 13 15 18 17 6 11 11 30 25 21 22 25 26 27 25
25 25 22 21 19 16 14 12 9 7 4 6 8 7 7 8 4 3 4 5 8 7 6 7 10 11 12 11 12 10 18 19 19 19 20 26 13 16 17 23 20 23 22 25 24
28 27 26 23 19 16 13 10 7 3 7 6 6 7 9 9 6 3 4 5 5 7 8 10 13 11 11 14 15 16 19 19 17 11 6 12 13 10 9 8 11 19 27 23 25
31 29 25 22 18 15 14 11 6 8 5 7 10 10 10 9 8 6 6 7 6 3 4 9 11 12 13 15 13 12 9 6 3 2 6 10 15 12 16 21 23 29 28 30 27
30 28 24 22 19 18 16 16 11 8 15 7 8 11 11 9 9 8 9 8 10 9 9 4 4 5 6 7 8 5 5 3 4 3 11 32 10 19 23 26 30 35 36 32 23
33 28 26 23 21 21 21 22 9 15 15 16 11 12 12 12 9 7 9 9 13 8 6 4 5 5 6 11 9 5 7 8 14 22 14 14 25 25 25 26 22 25 26 25 25
33 29 28 26 24 24 25 26 19 19 13 11 12 9 8 12 10 8 6 6 8 10 10 8 7 9 9 11 11 13 12 4 6 3 5 11 28 32 29 28 27 23 22 25 22
35 33 32 29 28 29 31 30 28 24 16 13 15 12 12 10 12 10 7 7 7 7 7 10 10 10 13 11 8 11 13 14 16 13 3 6 14 22 34 27 30 26 20 20 20
38 38 32 32 33 35 33 31 29 22 21 22 18 16 17 14 11 12 13 13 5 6 11 12 9 13 19 18 19 18 19 17 17 20 25 26 43 40 30 26 27 27 25 19 19
41 39 30 32 36 34 32 31 29 25 21 21 20 20 21 18 10 13 17 14 13 13 8 7 8 7 8 6 12 16 15 21 23 28 38 19 30 42 36 36 32 27 21 26 22
36 35 36 33 37 33 31 32 30 28 26 25 24 21 19 17 17 10 10 9 12 16 14 14 16 18 16 22 24 31 26 26 23 26 35 37 46 50 43 36 36 34 29 29 30
41 34 34 25 39 31 33 28 30 31 26 23 26 27 21 17 17 19 19 17 17 15 14 15 21 23 25 27 30 35 36 37 40 43 37 50 50 52 43 47 44 42 44 43 42
43 37 31 30 19 30 34 33 32 24 29 26 27 17 15 18 18 12 14 16 17 13 13 16 19 25 31 30 30 31 31 39 37 34 34 37 44 35 37 34 34 33 33 30 31
38 38 33 31 32 28 28 33 33 28 24 22 18 18 17 16 16 16 15 15 13 12 13 17 19 22 22 22 29 25 21 22 25 25 25 32 37 35 36 37 31 27 21 22 23
Wind_Direction
332 333 334 335 331 333 340 343 339 340 345 341 337 334 334 333 332 328 329 327 323 313 313 308 312 318 353 33 48 89 106 269 254 231 223 305 296 275 285 304 315 316 312 269 275
328 339 331 333 344 342 344 343 341 342 343 335 332 331 327 330 329 327 326 322 319 310 305 306 309 308 309 34 90 221 167 252 242 245 254 259 287 298 293 291 312 256 258 290 298
319 327 335 344 356 349 340 344 342 338 337 332 334 333 331 332 328 338 338 336 326 310 300 294 306 310 294 296 248 231 155 253 269 271 287 288 288 279 288 287 275 283 289 295 294
318 320 333 351 346 346 343 344 342 341 338 334 334 333 331 328 326 319 309 305 310 300 286 291 289 286 291 286 278 256 261 264 271 284 284 285 288 288 286 293 286 292 292 295 293
318 324 333 348 346 346 340 339 340 339 334 332 329 324 321 320 319 312 303 302 298 287 279 278 276 276 259 270 276 262 264 277 275 282 287 290 291 289 293 284 305 298 298 296 291
313 320 330 341 338 338 335 335 332 329 325 325 324 324 319 315 311 301 299 293 287 279 275 274 274 267 272 273 270 287 281 281 280 283 284 286 288 288 299 304 301 297 298 297 297
302 312 321 325 321 322 320 323 322 322 323 323 320 318 314 309 299 293 291 289 286 280 278 274 266 265 279 279 283 284 285 286 290 287 280 290 291 306 289 304 297 295 297 298 300
292 304 314 318 319 323 320 318 319 318 316 312 310 310 306 300 294 292 286 281 278 278 275 271 268 271 276 282 286 292 295 305 287 295 298 293 294 298 297 296 294 293 292 295 296
286 292 300 304 309 312 316 313 313 311 310 310 309 308 299 298 293 285 278 276 275 274 272 269 269 278 285 289 297 313 300 280 292 291 289 293 289 281 283 290 292 292 290 293 293
283 289 296 299 302 306 309 309 310 311 310 309 304 300 295 289 281 275 273 275 276 275 269 270 277 283 289 288 256 297 285 271 284 304 300 287 288 292 292 289 291 291 290 289 290
282 286 292 299 301 302 304 306 305 307 304 299 289 283 279 275 272 268 268 269 272 273 276 277 282 303 274 263 263 275 280 283 282 275 279 285 291 295 291 276 283 289 288 285 285
284 285 290 294 297 300 302 303 302 299 295 291 279 269 266 268 269 266 266 267 268 268 271 279 292 262 269 271 275 279 285 287 294 294 285 289 293 298 302 279 273 280 290 285 284
277 283 290 292 294 293 292 296 299 300 294 282 268 263 265 263 264 263 260 262 261 264 272 268 268 269 278 284 288 287 290 296 290 292 281 297 298 322 309 297 267 288 294 288 281
271 278 284 287 286 288 287 290 291 296 289 275 262 255 253 250 253 248 252 252 254 261 272 280 280 289 294 294 290 291 280 284 291 303 291 306 291 298 314 292 279 282 293 292 288
269 275 281 283 277 276 277 276 276 285 302 268 238 235 213 196 197 201 215 232 247 259 262 259 279 295 297 299 286 273 284 294 299 288 295 290 267 285 285 301 292 291 287 295 291
266 271 280 272 266 263 261 255 244 231 250 237 226 212 205 203 220 231 220 238 264 275 277 274 282 290 286 285 287 283 295 303 303 297 273 300 257 304 294 307 302 299 313 308 302
263 271 272 254 251 248 241 226 204 214 229 235 227 208 206 221 215 222 245 253 257 292 310 299 304 290 290 287 299 310 301 323 286 215 229 354 322 270 296 301 305 306 306 304 291
259 268 260 245 240 235 224 206 207 224 219 228 211 204 210 203 230 244 252 260 255 255 268 292 291 276 313 300 260 317 291 236 271 326 300 297 265 283 296 297 294 291 296 293 289
257 258 248 239 233 227 219 203 222 231 241 235 215 211 217 225 234 239 243 231 249 256 210 212 244 272 288 297 284 272 228 269 263 276 273 266 280 285 288 298 297 295 301 304 291
245 248 238 231 225 223 219 221 225 231 230 218 222 221 210 226 220 210 214 240 246 246 247 255 279 279 289 285 282 266 264 260 235 292 260 276 294 290 300 295 294 299 295 284 275
234 230 226 220 219 220 218 222 231 231 226 231 228 226 231 235 227 220 227 239 238 245 253 273 263 278 281 285 265 269 266 262 264 252 234 294 273 290 297 296 297 297 293 282 274
229 221 217 214 214 218 224 228 235 236 239 240 239 236 237 235 241 232 232 233 238 238 267 263 268 256 271 276 277 274 271 262 256 267 261 272 274 285 292 293 298 297 292 285 281
221 216 212 214 218 221 229 232 235 240 239 238 236 238 240 240 238 239 243 251 254 259 250 240 237 292 309 253 285 308 301 284 274 267 269 266 273 286 290 289 294 295 277 273 266
211 209 212 212 222 225 229 234 232 234 237 238 241 240 238 234 235 241 233 245 240 250 252 248 255 258 254 280 290 288 285 281 272 267 267 267 278 288 288 289 289 287 285 282 279
204 212 215 218 224 224 226 231 233 234 233 235 240 239 242 240 238 238 249 254 252 247 238 258 269 279 284 285 284 286 287 288 280 282 266 278 280 294 305 301 295 285 279 278 282
212 213 212 221 220 224 228 231 233 231 235 236 238 243 239 243 246 253 245 246 251 251 253 260 271 287 287 297 296 290 290 295 295 295 290 293 288 313 312 301 296 283 280 279 278
217 215 219 219 217 214 223 232 236 231 233 236 234 232 233 237 241 247 249 251 252 258 265 267 271 277 287 293 293 298 304 297 298 298 299 292 305 310 305 303 301 293 289 282 270